Home > Weather > Lienz > Past weeks

Flag for Austria Past Weather in Lienz, Tyrol, Austria — Yesterday and Last 2 Weeks

Now
73 °F

Mild.


Feels Like: 76 °F
Forecast: 65 / 87 °F
Wind: 3 mph from West

Location: Lienz

Current Time: Jun 25, 2016 at 12:22:12 AM

Latest Report: Jun 25, 2016 at 12:00 AM


Visibility: N/A

Pressure: 29.99 "Hg (27.73 "Hg at 677m altitude)

Humidity: 59%

Dew Point: 58 °F

Location of LienzLocation

Past Weather in Lienz — Graph

°F

Lienz Temperature Yesterday

Maximum temperature yesterday: 90 °F (at 6:00 PM)
Minimum temperature yesterday: 60 °F (at 6:00 AM)
Average temperature yesterday: 74 °F

High & Low Weather Summary for the Past Weeks

 TemperatureHumidityPressure
High90 °F (Jun 24, 6:00 PM)96% (Jun 14, 5:00 AM)30.32 "Hg (Jun 14, 5:00 AM)
Low46 °F (Jun 19, 5:00 AM)35% (Jun 24, 6:00 PM)29.50 "Hg (Jun 13, 4:00 PM)
Average63 °F73%29.91 "Hg
* Reported Jun 9 11:00 PM — Jun 24 11:00 PM, Lienz, Weather by CustomWeather, © 2016

Note: Actual official high and low records may vary slightly from our data, if they occured in-between our weather recording intervals... More about our weather records

Advertising

Lienz Weather History for the Previous 24 Hours

Scroll right to see more
 ConditionsComfort  
Time TempWeatherWind HumidityBarometerVisibility
11:00 PM
Fri, Jun 24
73 °FMild.2 mph59%29.96 "HgN/A
10:00 PM75 °FMild.2 mph50%29.95 "HgN/A
9:00 PM78 °FWarm.5 mph45%29.91 "HgN/A
8:00 PM83 °FWarm.3 mph41%29.87 "HgN/A
7:00 PM87 °FPleasantly warm.5 mph35%29.84 "HgN/A
6:00 PM90 °FHot.5 mph35%29.83 "HgN/A
3:00 PM89 °FHot.6 mph41%29.89 "HgN/A
2:00 PM87 °FPassing clouds.6 mph45%29.92 "Hg12 mi
1:00 PM85 °FWarm.6 mph48%29.96 "HgN/A
12:00 PM83 °FWarm.3 mph50%29.99 "HgN/A
11:00 AM78 °FWarm.1 mph56%30.04 "HgN/A
10:00 AM76 °FMild.1 mph57%30.07 "HgN/A
9:00 AM72 °FMild.No wind63%30.10 "HgN/A
8:00 AM69 °FMild.1 mph69%30.13 "HgN/A
7:00 AM63 °FSunny.No wind85%30.16 "Hg16 mi
6:00 AM60 °FCool.No wind88%30.18 "HgN/A
5:00 AM61 °FCool.No wind88%30.18 "HgN/A
4:00 AM62 °FCool.1 mph86%30.18 "HgN/A
3:00 AM64 °FMild.1 mph84%30.18 "HgN/A
2:00 AM65 °FMild.1 mph80%30.18 "HgN/A
1:00 AM67 °FMild.No wind77%30.19 "HgN/A
12:00 AM70 °FMild.1 mph70%30.16 "HgN/A
Weather by CustomWeather, © 2016

See weather overviewHow to use our weather pages